| time (UTC) | temp F | wind direction | speed MPH | gust MPH | rain 1hr in | rain 24hr in | rain mn in | humidity % | barometer mb |
| 20260903113055 | 82 | 194 | 1.0 | 9.0 | 0.00 | 0.00 | 0.00 | 89 | 1015.3 |
| 20260903111505 | 82 | 227 | 3.0 | 10.0 | 0.00 | 0.00 | 0.00 | 89 | 1015.3 |
| 20260903110005 | 82 | 226 | 3.0 | 10.0 | 0.00 | 0.00 | 0.00 | 89 | 1015.2 |
| 20260903104511 | 82 | 229 | 3.0 | 9.0 | 0.00 | 0.00 | 0.00 | 89 | 1015.1 |
| 20260903103017 | 81 | 15 | 0.0 | 4.0 | 0.00 | 0.00 | 0.00 | 89 | 1015.1 |
| 20260903101526 | 82 | 161 | 0.0 | 10.0 | 0.00 | 0.00 | 0.00 | 89 | 1015.0 |
| 20260903100028 | 81 | 257 | 0.0 | 3.0 | 0.00 | 0.00 | 0.00 | 90 | 1014.9 |
| 20260903094515 | 81 | 244 | 0.0 | 7.0 | 0.00 | 0.00 | 0.00 | 90 | 1014.8 |
| 20260903093027 | 80 | 161 | 0.0 | 9.0 | 0.00 | 0.00 | 0.00 | 90 | 1014.8 |
| 20260903091530 | 80 | 136 | 5.0 | 11.0 | 0.00 | 0.00 | 0.00 | 90 | 1014.9 |
| 20260903090037 | 81 | 136 | 5.0 | 11.0 | 0.00 | 0.00 | 0.00 | 90 | 1014.8 |
| 20260903084538 | 81 | 121 | 8.0 | 10.0 | 0.00 | 0.00 | 0.00 | 90 | 1014.8 |
| 20260903083022 | 81 | 126 | 8.0 | 12.0 | 0.00 | 0.00 | 0.00 | 90 | 1014.8 |
| 20260903081535 | 81 | 131 | 6.0 | 8.0 | 0.00 | 0.00 | 0.00 | 90 | 1014.8 |
| 20260903080041 | 81 | 132 | 7.0 | 10.0 | 0.00 | 0.00 | 0.00 | 89 | 1014.8 |
| 20260903074544 | 81 | 119 | 8.0 | 11.0 | 0.00 | 0.00 | 0.00 | 89 | 1014.7 |
| 20260903073100 | 81 | 115 | 8.0 | 10.0 | 0.00 | 0.00 | 0.00 | 89 | 1014.8 |
| 20260903073009 | 81 | 125 | 8.0 | 10.0 | 0.00 | 0.00 | 0.00 | 89 | 1014.8 |
| 20260903071600 | 82 | 128 | 6.0 | 8.0 | 0.00 | 0.00 | 0.00 | 88 | 1015.0 |
| 20260903071502 | 82 | 126 | 6.0 | 8.0 | 0.00 | 0.00 | 0.00 | 88 | 1014.9 |
| 20260903070048 | 82 | 130 | 6.0 | 8.0 | 0.00 | 0.00 | 0.00 | 88 | 1015.2 |
| 20260903064535 | 82 | 134 | 6.0 | 9.0 | 0.00 | 0.00 | 0.00 | 88 | 1015.3 |
| 20260903063049 | 82 | 136 | 6.0 | 9.0 | 0.00 | 0.00 | 0.00 | 88 | 1015.3 |
| 20260903061555 | 82 | 95 | 1.0 | 6.0 | 0.00 | 0.00 | 0.00 | 87 | 1015.5 |
| 20260903060059 | 82 | 103 | 4.0 | 8.0 | 0.00 | 0.00 | 0.00 | 88 | 1015.6 |
| 20260903054536 | 82 | 115 | 5.0 | 7.0 | 0.00 | 0.00 | 0.00 | 88 | 1015.6 |
| 20260903053044 | 82 | 116 | 2.0 | 5.0 | 0.00 | 0.00 | 0.00 | 87 | 1015.7 |
| 20260903051544 | 82 | 119 | 2.0 | 5.0 | 0.00 | 0.00 | 0.00 | 87 | 1015.8 |
| 20260903050052 | 82 | 119 | 3.0 | 6.0 | 0.00 | 0.00 | 0.00 | 87 | 1015.8 |
| 20260903044503 | 82 | 110 | 4.0 | 6.0 | 0.00 | 0.00 | 0.00 | 87 | 1015.8 |
| 20260903043013 | 83 | 134 | 8.0 | 12.0 | 0.00 | 0.00 | 0.00 | 87 | 1015.7 |
| 20260903041515 | 83 | 135 | 6.0 | 12.0 | 0.00 | 0.00 | 0.00 | 87 | 1015.7 |
| 20260903040019 | 83 | 135 | 5.0 | 9.0 | 0.00 | 0.00 | 0.00 | 87 | 1015.7 |
| 20260903034527 | 83 | 159 | 8.0 | 11.0 | 0.00 | 0.00 | 0.00 | 87 | 1015.6 |
| 20260903033037 | 83 | 135 | 5.0 | 6.0 | 0.00 | 0.00 | 0.00 | 86 | 1015.7 |
| 20260903031547 | 84 | 131 | 3.0 | 9.0 | 0.00 | 0.00 | 0.00 | 85 | 1015.7 |
| 20260903030056 | 84 | 163 | 7.0 | 11.0 | 0.00 | 0.00 | 0.00 | 86 | 1015.1 |
| 20260903024507 | 84 | 143 | 6.0 | 10.0 | 0.00 | 0.00 | 0.00 | 85 | 1014.9 |
| 20260903023009 | 84 | 160 | 8.0 | 12.0 | 0.00 | 0.00 | 0.00 | 84 | 1014.8 |
| 20260903021515 | 84 | 146 | 7.0 | 12.0 | 0.00 | 0.00 | 0.00 | 83 | 1014.6 |
| 20260903020027 | 84 | 143 | 6.0 | 12.0 | 0.00 | 0.00 | 0.00 | 82 | 1014.3 |
| 20260903014528 | 84 | 148 | 7.0 | 11.0 | 0.00 | 0.00 | 0.00 | 81 | 1014.2 |
| 20260903013040 | 85 | 145 | 7.0 | 10.0 | 0.00 | 0.00 | 0.00 | 79 | 1014.1 |
| 20260903011607 | 85 | 136 | 7.0 | 12.0 | 0.00 | 0.00 | 0.00 | 78 | 1014.1 |
| 20260903010103 | 86 | 137 | 6.0 | 10.0 | 0.00 | 0.00 | 0.00 | 77 | 1014.1 |
| 20260903010007 | 86 | 142 | 7.0 | 10.0 | 0.00 | 0.00 | 0.00 | 76 | 1014.1 |
| 20260903004516 | 87 | 140 | 7.0 | 13.0 | 0.00 | 0.00 | 0.00 | 75 | 1014.2 |
| 20260903003018 | 87 | 154 | 9.0 | 15.0 | 0.00 | 0.00 | 0.00 | 74 | 1013.7 |
| 20260903001528 | 88 | 148 | 10.0 | 21.0 | 0.00 | 0.00 | 0.00 | 72 | 1013.2 |
| 20260903000041 | 89 | 152 | 10.0 | 16.0 | 0.00 | 0.00 | 0.00 | 71 | 1013.2 |
| 20260902234541 | 89 | 139 | 10.0 | 15.0 | 0.00 | 0.00 | 0.00 | 69 | 1013.3 |
| 20260902233032 | 90 | 155 | 11.0 | 15.0 | 0.00 | 0.00 | 0.00 | 68 | 1013.2 |
| 20260902231528 | 90 | 137 | 9.0 | 14.0 | 0.00 | 0.00 | 0.00 | 66 | 1013.3 |
| 20260902230032 | 91 | 187 | 9.0 | 15.0 | 0.00 | 0.00 | 0.00 | 66 | 1013.3 |
| 20260902224537 | 91 | 143 | 10.0 | 18.0 | 0.00 | 0.00 | 0.00 | 65 | 1013.1 |
| 20260902223043 | 92 | 183 | 11.0 | 18.0 | 0.00 | 0.00 | 0.00 | 66 | 1013.2 |
| 20260902221554 | 92 | 148 | 9.0 | 15.0 | 0.00 | 0.00 | 0.00 | 66 | 1013.2 |
| 20260902220006 | 93 | 182 | 11.0 | 18.0 | 0.00 | 0.00 | 0.00 | 66 | 1013.1 |
| 20260902214530 | 93 | 167 | 11.0 | 16.0 | 0.00 | 0.00 | 0.00 | 65 | 1013.2 |
| 20260902213014 | 94 | 147 | 9.0 | 15.0 | 0.00 | 0.00 | 0.00 | 64 | 1013.3 |
| 20260902211517 | 95 | 145 | 6.0 | 15.0 | 0.00 | 0.00 | 0.00 | 66 | 1013.4 |
| 20260902210018 | 94 | 147 | 8.0 | 19.0 | 0.00 | 0.00 | 0.00 | 66 | 1013.5 |
| 20260902204522 | 93 | 126 | 6.0 | 16.0 | 0.00 | 0.00 | 0.00 | 67 | 1013.7 |
| 20260902203035 | 94 | 147 | 9.0 | 18.0 | 0.00 | 0.00 | 0.00 | 66 | 1014.0 |
| 20260902201541 | 94 | 251 | 3.0 | 14.0 | 0.00 | 0.00 | 0.00 | 68 | 1014.0 |
| 20260902200048 | 94 | 215 | 4.0 | 11.0 | 0.00 | 0.00 | 0.00 | 68 | 1014.3 |
| 20260902194553 | 94 | 240 | 5.0 | 11.0 | 0.00 | 0.00 | 0.00 | 69 | 1014.4 |
| 20260902193054 | 93 | 234 | 1.0 | 9.0 | 0.00 | 0.00 | 0.00 | 72 | 1014.9 |
| 20260902191559 | 93 | 100 | 2.0 | 8.0 | 0.00 | 0.00 | 0.00 | 73 | 1015.0 |
| 20260902190058 | 92 | 160 | 5.0 | 13.0 | 0.00 | 0.00 | 0.00 | 73 | 1015.1 |
| 20260902184604 | 91 | 323 | 1.0 | 11.0 | 0.00 | 0.00 | 0.00 | 75 | 1015.2 |
| 20260902183009 | 91 | 243 | 1.0 | 12.0 | 0.00 | 0.00 | 0.00 | 77 | 1015.5 |
| 20260902181507 | 90 | 332 | 4.0 | 10.0 | 0.00 | 0.00 | 0.00 | 77 | 1015.7 |
| 20260902180012 | 90 | 257 | 2.0 | 11.0 | 0.00 | 0.00 | 0.00 | 79 | 1016.0 |
| 20260902174521 | 90 | 234 | 5.0 | 9.0 | 0.00 | 0.00 | 0.00 | 80 | 1016.3 |
| 20260902173023 | 89 | 12 | 4.0 | 10.0 | 0.00 | 0.00 | 0.00 | 82 | 1016.6 |
| 20260902171533 | 89 | 246 | 2.0 | 9.0 | 0.00 | 0.00 | 0.00 | 83 | 1016.8 |
| 20260902170026 | 88 | 355 | 3.0 | 10.0 | 0.00 | 0.00 | 0.00 | 84 | 1016.9 |
| 20260902164530 | 87 | 206 | 3.0 | 7.0 | 0.00 | 0.00 | 0.00 | 85 | 1017.0 |
| 20260902163032 | 87 | 248 | 2.0 | 6.0 | 0.00 | 0.00 | 0.00 | 86 | 1017.1 |
| 20260902161535 | 86 | 269 | 1.0 | 9.0 | 0.00 | 0.00 | 0.00 | 87 | 1017.2 |
| 20260902160058 | 86 | 290 | 4.0 | 9.0 | 0.00 | 0.00 | 0.00 | 87 | 1017.1 |
| 20260902154540 | 85 | 236 | 2.0 | 7.0 | 0.00 | 0.00 | 0.00 | 88 | 1017.3 |
| 20260902153039 | 84 | 216 | 2.0 | 9.0 | 0.00 | 0.00 | 0.00 | 88 | 1017.3 |
| 20260902151537 | 84 | 287 | 2.0 | 8.0 | 0.00 | 0.00 | 0.00 | 89 | 1017.1 |
| 20260902150039 | 84 | 262 | 4.0 | 11.0 | 0.00 | 0.00 | 0.00 | 89 | 1016.9 |
| 20260902144555 | 83 | 239 | 5.0 | 9.0 | 0.00 | 0.00 | 0.00 | 89 | 1016.9 |
| 20260902143003 | 83 | 238 | 0.0 | 9.0 | 0.00 | 0.00 | 0.00 | 89 | 1016.9 |
| 20260902141512 | 82 | 259 | 1.0 | 6.0 | 0.00 | 0.00 | 0.00 | 89 | 1016.9 |
| 20260902140020 | 82 | 292 | 0.0 | 4.0 | 0.00 | 0.00 | 0.00 | 89 | 1017.1 |
| 20260902134527 | 81 | 236 | 1.0 | 5.0 | 0.00 | 0.00 | 0.00 | 89 | 1017.0 |
| 20260902133035 | 81 | 295 | 2.0 | 7.0 | 0.00 | 0.00 | 0.00 | 89 | 1016.7 |
| 20260902131519 | 81 | 254 | 0.0 | 1.0 | 0.00 | 0.00 | 0.00 | 89 | 1016.8 |
| 20260902130020 | 81 | 265 | 0.0 | 0.0 | 0.00 | 0.00 | 0.00 | 89 | 1016.6 |
| 20260902124509 | 81 | 275 | 0.0 | 4.0 | 0.00 | 0.00 | 0.00 | 89 | 1016.3 |
| 20260902123011 | 81 | 148 | 0.0 | 1.0 | 0.00 | 0.00 | 0.00 | 89 | 1016.0 |
| 20260902121512 | 81 | 150 | 0.0 | 2.0 | 0.00 | 0.00 | 0.00 | 89 | 1015.7 |
| 20260902120005 | 81 | 212 | 0.0 | 2.0 | 0.00 | 0.00 | 0.00 | 88 | 1015.7 |
| 20260902114511 | 81 | 223 | 0.0 | 0.0 | 0.00 | 0.00 | 0.00 | 88 | 1015.6 |